カタログに戻る

BREEZE-M DEB

TANK

運用中HEO
NORAD 36360·DEBRIS·🇷🇺 Russia

打ち上げ Jan 28, 2010 から Baikonur Cosmodrome

Loading…

次のパス (今後24時間)

TLE

最新Source: Space-Track

元期: Sep 10, 2026, 20:37 UTC

1 36360U 10002C   26253.85913561 -.00000050  00000-0  28085-2 0  9998
2 36360  45.1804 274.4245 6950872 251.8312  25.9041  2.34909290141970

AllMySatでBREEZE-M DEBをリアルタイム追跡

Download on the App Store